EW5401 Weather Reports


Display with metric or nautical units.
time (UTC)temp
F
wind
direction
speed
MPH
gust
MPH
rain 1hr
in
rain 24hr
in
rain mn
in
humidity
%
barometer
mb
20260905043043 60 281 0.0 2.0 0.00 0.00 0.00 93 1010.1
20260905041540 60 281 0.0 1.0 0.00 0.00 0.00 93 1010.1
20260905040047 61 281 0.0 0.0 0.00 0.00 0.00 92 1010.1
20260905034555 61 281 0.0 0.0 0.00 0.00 0.00 92 1009.9
20260905033055 61 281 0.0 0.0 0.00 0.00 0.00 92 1009.7
20260905031534 62 281 0.0 2.0 0.00 0.00 0.00 91 1009.8
20260905030033 62 281 0.0 2.0 0.00 0.00 0.00 91 1010.0
20260905024532 62 281 0.0 2.0 0.00 0.00 0.00 91 1010.0
20260905023100 63 281 0.0 0.0 0.00 0.00 0.00 90 1010.0
20260905021530 63 281 0.0 2.0 0.00 0.00 0.00 90 1009.9
20260905020029 64 281 0.0 0.0 0.00 0.00 0.00 88 1009.7
20260905014528 64 281 0.0 0.0 0.00 0.00 0.00 87 1009.9
20260905013025 65 281 0.0 1.0 0.00 0.00 0.00 86 1010.1
20260905011521 66 281 0.0 0.0 0.00 0.00 0.00 84 1010.1
20260905010023 67 281 0.0 1.0 0.00 0.00 0.00 82 1010.1
20260905004520 68 281 0.0 0.0 0.00 0.00 0.00 80 1010.1
20260905003020 69 281 1.0 3.0 0.00 0.00 0.00 79 1010.0
20260905001521 70 281 0.0 2.0 0.00 0.00 0.00 77 1009.7
20260905000017 71 281 0.0 2.0 0.00 0.00 0.00 75 1009.4
20260904234526 71 281 0.0 6.0 0.00 0.00 0.00 74 1009.4
20260904233017 71 323 0.0 2.0 0.00 0.00 0.00 77 1009.2
20260904231517 73 323 0.0 3.0 0.00 0.00 0.00 73 1009.1
20260904230017 74 323 0.0 2.0 0.00 0.00 0.00 71 1009.1
20260904224517 75 323 1.0 8.0 0.00 0.00 0.00 68 1009.1
20260904223017 77 306 1.0 3.0 0.00 0.00 0.00 65 1009.1
20260904221514 78 306 2.0 6.0 0.00 0.00 0.00 64 1008.9
20260904220025 78 312 1.0 3.0 0.00 0.00 0.00 62 1008.8
20260904214514 78 324 0.0 9.0 0.00 0.00 0.00 61 1008.9
20260904213014 79 300 0.0 6.0 0.00 0.00 0.00 62 1008.9
20260904211511 80 167 1.0 8.0 0.00 0.00 0.00 62 1009.0
20260904210012 79 252 4.0 12.0 0.00 0.00 0.00 58 1009.1
20260904204509 80 293 6.0 14.0 0.00 0.00 0.00 56 1009.1
20260904203008 80 269 1.0 12.0 0.00 0.00 0.00 60 1009.1
20260904201507 80 318 3.0 9.0 0.00 0.00 0.00 60 1009.1
20260904200009 80 268 2.0 7.0 0.00 0.00 0.00 61 1009.3
20260904194508 79 311 2.0 10.0 0.00 0.00 0.00 60 1009.4
20260904193003 80 316 5.0 10.0 0.00 0.00 0.00 60 1009.3
20260904191600 78 46 2.0 10.0 0.00 0.00 0.00 62 1009.4
20260904190059 77 92 4.0 9.0 0.00 0.00 0.00 65 1009.5
20260904184611 78 294 1.0 9.0 0.00 0.00 0.00 62 1009.7
20260904183058 77 306 2.0 8.0 0.00 0.00 0.00 65 1009.9
20260904181610 78 344 3.0 9.0 0.00 0.00 0.00 63 1010.1
20260904180113 78 323 3.0 8.0 0.00 0.00 0.00 62 1010.1
20260904174609 77 340 3.0 8.0 0.00 0.00 0.00 63 1010.0
20260904173059 78 349 2.0 8.0 0.00 0.00 0.00 62 1010.0
20260904171554 78 75 2.0 8.0 0.00 0.00 0.00 61 1009.6
20260904170054 77 315 4.0 12.0 0.00 0.00 0.00 66 1009.8
20260904164551 77 340 4.0 12.0 0.00 0.00 0.00 67 1010.0
20260904163101 78 325 2.0 8.0 0.00 0.00 0.00 68 1010.1
20260904161549 77 339 3.0 10.0 0.00 0.00 0.00 71 1010.3
20260904160045 76 274 2.0 9.0 0.00 0.00 0.00 70 1010.4
20260904154544 76 250 5.0 12.0 0.00 0.00 0.00 72 1010.5
20260904153048 76 350 4.0 10.0 0.00 0.00 0.00 70 1010.7
20260904151542 76 30 4.0 12.0 0.00 0.00 0.00 69 1010.9
20260904150049 76 269 3.0 11.0 0.00 0.00 0.00 74 1010.9
20260904144539 75 302 2.0 11.0 0.00 0.00 0.00 76 1010.8
20260904143038 75 355 3.0 9.0 0.00 0.00 0.00 77 1010.7
20260904141532 73 250 4.0 9.0 0.00 0.00 0.00 77 1010.9
20260904140036 73 286 3.0 12.0 0.00 0.00 0.00 81 1010.7
20260904134526 72 71 1.0 7.0 0.00 0.00 0.00 83 1010.6
20260904133021 69 28 3.0 7.0 0.00 0.00 0.00 87 1010.7
20260904131519 68 345 2.0 9.0 0.00 0.00 0.00 91 1010.9
20260904130018 67 276 1.0 5.0 0.00 0.00 0.00 96 1010.8
20260904124517 67 53 1.0 2.0 0.00 0.00 0.00 96 1010.8
20260904123017 67 53 0.0 1.0 0.00 0.00 0.00 97 1010.8
20260904121517 66 308 1.0 2.0 0.00 0.00 0.00 97 1010.7
20260904120017 65 308 0.0 1.0 0.00 0.00 0.00 96 1010.6
20260904114515 65 14 0.0 2.0 0.00 0.00 0.00 96 1010.4
20260904113019 65 14 0.0 3.0 0.00 0.00 0.00 96 1010.4
20260904111516 65 14 0.0 3.0 0.00 0.00 0.00 96 1010.2
20260904110022 65 38 1.0 2.0 0.00 0.00 0.00 96 1010.2
20260904104513 66 37 1.0 3.0 0.00 0.00 0.00 96 1009.9
20260904103015 66 55 1.0 3.0 0.00 0.00 0.00 96 1009.8
20260904101507 66 78 0.0 2.0 0.00 0.00 0.00 96 1009.8
20260904100006 67 78 0.0 2.0 0.00 0.00 0.00 96 1009.8
20260904094504 67 78 0.0 3.0 0.00 0.00 0.00 96 1009.7
20260904093003 67 78 0.0 1.0 0.00 0.00 0.00 96 1009.6
20260904091502 67 78 0.0 2.0 0.00 0.00 0.00 96 1009.6
20260904090101 67 78 0.0 2.0 0.00 0.00 0.00 96 1009.6
20260904084601 68 78 0.0 0.0 0.00 0.00 0.00 96 1009.5
20260904083058 68 78 0.0 2.0 0.00 0.00 0.00 96 1009.1
20260904081558 68 78 0.0 2.0 0.00 0.00 0.00 96 1009.1
20260904074556 68 46 0.0 2.0 0.00 0.00 0.00 96 1009.2
20260904073055 68 46 0.0 0.0 0.00 0.00 0.00 96 1009.4
20260904071554 68 46 0.0 1.0 0.00 0.00 0.00 96 1009.4
20260904070052 68 46 2.0 3.0 0.00 0.00 0.00 95 1009.7
20260904064548 68 43 1.0 3.0 0.00 0.00 0.00 95 1010.0
20260904063046 68 281 0.0 2.0 0.00 0.00 0.00 95 1010.1
20260904061552 68 281 0.0 2.0 0.00 0.00 0.00 95 1010.3
20260904060043 69 281 0.0 2.0 0.00 0.00 0.00 95 1010.2
20260904054543 69 281 0.0 0.0 0.00 0.09 0.00 95 1010.2
20260904053041 69 281 0.0 3.0 0.00 0.09 0.00 95 1010.2
20260904051547 69 281 1.0 2.0 0.00 0.09 0.00 95 1010.3
20260904050039 69 281 0.0 3.0 0.00 0.09 0.00 95 1010.5
20260904044536 69 281 0.0 0.0 0.00 0.18 0.00 95 1010.7